1484190001.08,2169,5.31,71594.8,-13.37,-14.97,-14.93,0,*5E
1484190002.34,2170,5.31,71590.5,-13.37,-15.07,-14.97,0,*5A
1484190003.6,2171,5.38,71598.5,-13.37,-15.07,-14.97,0,*5B
1484190004.83,2172,5.38,71604.8,-13.37,-15.07,-15.07,0,*50
1484190006.11,2173,5.31,71600.8,-13.37,-14.97,-14.83,0,*54
1484190007.37,2174,5.31,71596.0,-13.35,-14.75,-14.51,0,*52
1484190008.65,2175,5.31,71594.3,-13.35,-14.47,-14.47,0,*55
1484190009.93,2176,5.31,71596.0,-13.37,-14.51,-14.43,0,*57
1484190011.21,2177,5.38,71602.3,-13.37,-14.51,-14.43,0,*56
1484190012.5,2178,5.31,71588.5,-13.37,-14.43,-14.43,0,*5A
1484190013.71,2179,5.31,71592.3,-13.35,-14.37,-14.23,0,*5C
1484190014.95,2180,5.31,71592.8,-13.37,-14.29,-14.29,0,*5D
1484190016.18,2181,5.38,71590.3,-13.37,-14.29,-14.37,0,*53
1484190017.42,2182,5.31,71590.5,-13.37,-14.37,-14.29,0,*50
1484190018.63,2183,5.31,71594.8,-13.35,-14.33,-14.23,0,*5D
1484190019.84,2184,5.31,71584.0,-13.35,-14.33,-14.23,0,*5A
1484190021.05,2185,5.31,71598.5,-13.35,-14.33,-14.33,0,*5A
1484190022.27,2186,5.31,71594.8,-13.35,-14.37,-14.33,0,*5D
1484190023.55,2187,5.31,71600.5,-13.37,-14.43,-14.51,0,*59
1484190024.81,2188,5.31,71592.0,-13.37,-14.43,-14.29,0,*59
1484190026.03,2189,5.31,71598.3,-13.35,-14.23,-14.23,0,*56
1484190027.27,2190,5.31,71598.3,-13.37,-14.29,-14.19,0,*5F
1484190028.5,2191,5.31,71584.0,-13.37,-14.37,-14.23,0,*58
1484190029.74,2192,5.31,71594.5,-13.37,-14.29,-14.29,0,*5E
1484190030.95,2193,5.31,71590.5,-13.35,-14.19,-14.19,0,*5D
1484190032.17,2194,5.38,71600.0,-13.35,-14.19,-14.19,0,*5A
1484190033.41,2195,5.31,71596.5,-13.37,-14.29,-14.23,0,*53
1484190034.64,2196,5.38,71596.0,-13.37,-14.29,-14.23,0,*50
1484190035.86,2197,5.31,71592.8,-13.35,-14.37,-14.33,0,*5D
1484190037.07,2198,5.31,71586.8,-13.35,-14.23,-14.33,0,*57
1484190038.29,2199,5.31,71598.0,-13.35,-14.23,-14.23,0,*57
1484190039.53,2200,5.31,71596.5,-13.37,-14.29,-14.37,0,*59
1484190040.79,2201,5.31,71588.0,-13.37,-14.43,-14.37,0,*54
1484190042.02,2202,5.31,71584.8,-13.35,-14.43,-14.37,0,*55
1484190043.24,2203,5.31,71592.3,-13.35,-14.23,-14.23,0,*57
1484190044.45,2204,5.38,71598.5,-13.35,-14.37,-14.37,0,*50
1484190045.67,2205,5.31,71596.0,-13.35,-14.33,-14.33,0,*51
1484190046.9,2206,5.31,71588.0,-13.37,-14.33,-14.33,0,*50
1484190048.19,2207,5.38,71586.5,-13.37,-14.55,-14.55,0,*51
1484190049.47,2208,5.31,71586.0,-13.37,-14.51,-14.43,0,*5D
1484190050.73,2209,5.31,71586.3,-13.37,-14.43,-14.37,0,*5C
1484190051.97,2210,5.38,71592.0,-13.37,-14.29,-14.29,0,*57
1484190053.19,2211,5.31,71590.0,-13.35,-14.23,-14.23,0,*54
1484190054.42,2212,5.31,71594.5,-13.37,-14.37,-14.37,0,*55
1484190055.64,2213,5.38,71594.5,-13.35,-14.37,-14.37,0,*56
1484190056.93,2214,5.31,71586.0,-13.37,-14.55,-14.55,0,*53
1484190058.15,2215,5.31,71586.3,-13.37,-14.69,-14.65,0,*5E
1484190059.39,2216,5.31,71584.3,-13.35,-14.65,-14.51,0,*54
1484190060.62,2217,5.38,71590.0,-13.37,-14.69,-14.65,0,*5C
1484190061.85,2218,5.38,71584.5,-13.37,-14.69,-14.65,0,*53
1484190063.13,2219,5.31,71584.3,-13.37,-14.79,-14.79,0,*5E
1484190064.42,2220,5.31,71588.0,-13.37,-14.79,-14.79,0,*54
1484190065.65,2221,5.31,71590.5,-13.37,-14.69,-14.65,0,*59
1484190066.94,2222,5.31,71590.0,-13.37,-14.83,-14.79,0,*53
1484190068.2,2223,5.38,71596.5,-13.41,-14.89,-14.83,0,*5C
1484190069.43,2224,5.31,71594.8,-13.37,-14.69,-14.69,0,*50
1484190070.66,2225,5.31,71594.0,-13.37,-14.69,-14.65,0,*5D
1484190071.89,2226,5.31,71594.0,-13.37,-14.65,-14.65,0,*52
1484190073.16,2227,5.31,71588.8,-13.37,-14.55,-14.65,0,*50
1484190074.42,2228,5.31,71586.8,-13.37,-14.43,-14.37,0,*5F
1484190075.65,2229,5.31,71596.5,-13.37,-14.37,-14.29,0,*52
1484190076.89,2230,5.38,71596.8,-13.37,-14.37,-14.29,0,*5A
1484190078.15,2231,5.31,71598.5,-13.41,-14.33,-14.43,0,*52
1484190079.38,2232,5.31,71602.3,-13.37,-14.29,-14.29,0,*57
1484190080.62,2233,5.31,71600.0,-13.37,-14.37,-14.29,0,*59
1484190081.86,2234,5.38,71600.8,-13.37,-14.29,-14.37,0,*5E
1484190083.09,2235,5.31,71594.0,-13.37,-14.37,-14.37,0,*50
1484190084.38,2236,5.31,71598.0,-13.37,-14.51,-14.43,0,*50
1484190085.67,2237,5.31,71604.5,-13.41,-14.47,-14.43,0,*57
1484190086.95,2238,5.31,71600.3,-13.37,-14.43,-14.43,0,*5D
1484190088.21,2239,5.38,71602.8,-13.37,-14.43,-14.37,0,*5F
1484190089.49,2240,5.31,71598.0,-13.37,-14.51,-14.43,0,*51
1484190090.77,2241,5.31,71602.8,-13.37,-14.43,-14.43,0,*53
1484190092.04,2242,5.38,71606.5,-13.37,-14.43,-14.37,0,*53
1484190093.27,2243,5.31,71600.8,-13.37,-14.37,-14.29,0,*5E
1484190094.51,2244,5.31,71588.3,-13.37,-14.37,-14.37,0,*56
1484190095.8,2245,5.38,71580.5,-13.37,-14.51,-14.55,0,*53
1484190097.08,2246,5.38,71580.0,-13.37,-14.51,-14.43,0,*57
1484190098.37,2247,5.38,71576.3,-13.37,-14.51,-14.43,0,*56
1484190099.61,2248,5.31,71572.5,-13.37,-14.37,-14.29,0,*55
1484190100.84,2249,5.31,71576.8,-13.37,-14.29,-14.29,0,*5B
1484190102.08,2250,5.38,71580.0,-13.37,-14.29,-14.29,0,*53
1484190103.31,2251,5.31,71594.0,-13.37,-14.29,-14.29,0,*52
1484190104.55,2252,5.31,71598.8,-13.37,-14.23,-14.29,0,*5B
1484190105.79,2253,5.38,71594.8,-13.37,-14.37,-14.29,0,*5F
1484190107.02,2254,5.31,71592.3,-13.37,-14.29,-14.29,0,*57
1484190108.26,2255,5.38,71592.8,-13.37,-14.29,-14.29,0,*56
1484190109.5,2256,5.31,71590.3,-13.37,-14.37,-14.37,0,*55
1484190110.71,2257,5.38,71598.5,-13.35,-14.33,-14.33,0,*56
1484190111.94,2258,5.38,71594.0,-13.37,-14.29,-14.37,0,*54
1484190113.18,2259,5.38,71592.8,-13.37,-14.37,-14.37,0,*5A
1484190114.41,2260,5.38,71594.3,-13.37,-14.37,-14.29,0,*5F
1484190115.63,2261,5.31,71600.0,-13.35,-14.33,-14.23,0,*52
1484190116.86,2262,5.31,71598.8,-13.37,-14.29,-14.29,0,*52
1484190118.13,2263,5.31,71598.0,-13.37,-14.55,-14.65,0,*50
1484190119.36,2264,5.31,71602.3,-13.37,-14.65,-14.65,0,*54
1484190120.65,2265,5.31,71598.5,-13.37,-14.51,-14.51,0,*55
1484190121.95,2266,5.38,71590.5,-13.41,-14.47,-14.51,0,*50
1484190123.24,2267,5.31,71576.3,-13.37,-14.51,-14.51,0,*57
1484190124.48,2268,5.38,71580.0,-13.37,-14.65,-14.65,0,*58
1484190125.76,2269,5.31,71566.8,-13.37,-14.55,-14.55,0,*59
1484190127.05,2270,5.31,71568.3,-13.37,-14.79,-14.79,0,*51
1484190128.33,2271,5.31,71574.8,-13.37,-14.79,-14.79,0,*50
1484190129.56,2272,5.38,71574.3,-13.37,-14.69,-14.65,0,*5F
1484190130.85,2273,5.38,71576.3,-13.37,-14.51,-14.43,0,*51
1484190132.14,2274,5.38,71576.8,-13.37,-14.55,-14.51,0,*51
1484190133.42,2275,5.31,71582.0,-13.37,-14.43,-14.43,0,*54
1484190134.71,2276,5.38,71576.5,-13.41,-14.55,-14.55,0,*56
1484190135.99,2277,5.38,71584.0,-13.37,-14.43,-14.43,0,*56
1484190137.27,2278,5.38,71578.5,-13.41,-14.43,-14.43,0,*58
1484190138.51,2279,5.38,71586.5,-13.37,-14.37,-14.37,0,*58
1484190139.79,2280,5.38,71586.8,-13.37,-14.43,-14.43,0,*5E
1484190141.07,2281,5.31,71584.3,-13.37,-14.43,-14.43,0,*5F
1484190142.36,2282,5.31,71588.3,-13.37,-14.51,-14.51,0,*5C
1484190143.62,2283,5.38,71588.3,-13.37,-14.65,-14.55,0,*5E
1484190144.87,2284,5.38,71594.3,-13.37,-14.69,-14.55,0,*55
1484190146.1,2285,5.31,71592.8,-13.37,-14.69,-14.65,0,*57
1484190147.33,2286,5.38,71592.8,-13.37,-14.69,-14.65,0,*54
1484190148.56,2287,5.31,71594.8,-13.37,-14.69,-14.65,0,*55
1484190149.79,2288,5.38,71602.5,-13.37,-14.69,-14.65,0,*5A
1484190151.02,2289,5.38,71596.5,-13.37,-14.69,-14.65,0,*5B
1484190152.29,2290,5.31,71594.5,-13.37,-14.55,-14.65,0,*5C
1484190153.58,2291,5.31,71578.5,-13.41,-14.75,-14.83,0,*56
1484190154.83,2292,5.31,71578.3,-13.37,-14.69,-14.55,0,*52
1484190156.06,2293,5.31,71592.8,-13.37,-14.69,-14.65,0,*50
1484190157.29,2294,5.38,71590.5,-13.37,-14.69,-14.65,0,*57
1484190158.54,2295,5.31,71596.3,-13.37,-14.69,-14.79,0,*5B
1484190159.83,2296,5.31,71594.8,-13.37,-14.79,-14.79,0,*59
1484190161.12,2297,5.38,71588.0,-13.37,-14.83,-14.83,0,*58
1484190162.4,2298,5.31,71578.8,-13.37,-14.93,-14.83,0,*56
1484190163.68,2299,5.38,71586.0,-13.37,-14.93,-14.83,0,*57
1484190164.96,2300,5.31,71588.3,-13.37,-14.97,-14.97,0,*57
1484190166.2,2301,5.31,71582.5,-13.37,-15.07,-15.07,0,*56
1484190167.45,2302,5.31,71586.5,-13.37,-14.97,-15.07,0,*5D
1484190168.71,2303,5.31,71588.0,-13.37,-15.07,-14.97,0,*5C
1484190169.96,2304,5.38,71592.0,-13.37,-15.21,-15.07,0,*57
1484190171.19,2305,5.38,71598.3,-13.37,-15.11,-15.11,0,*52
1484190172.42,2306,5.38,71600.5,-13.37,-15.11,-15.11,0,*51
1484190173.65,2307,5.38,71598.5,-13.37,-15.11,-15.11,0,*50
1484190174.88,2308,5.31,71602.8,-13.37,-15.11,-15.07,0,*58
1484190176.11,2309,5.31,71598.3,-13.37,-15.11,-15.07,0,*59
1484190177.35,2310,5.38,71600.5,-13.35,-15.07,-15.01,0,*52
1484190178.58,2311,5.38,71600.0,-13.37,-15.11,-15.07,0,*50
1484190179.83,2312,5.31,71600.3,-13.37,-15.11,-14.93,0,*5F
1484190181.09,2313,5.38,71604.0,-13.37,-15.07,-14.79,0,*5D
1484190182.35,2314,5.38,71606.3,-13.37,-14.83,-14.65,0,*5A
1484190183.61,2315,5.31,71606.3,-13.37,-14.65,-14.55,0,*50
1484190184.88,2316,5.38,71602.3,-13.35,-14.51,-14.51,0,*52
1484190186.13,2317,5.31,71596.0,-13.37,-14.65,-14.51,0,*56
1484190187.41,2318,5.31,71602.8,-13.35,-14.47,-14.47,0,*5C
1484190188.69,2319,5.31,71600.8,-13.37,-14.51,-14.43,0,*5C
1484190189.95,2320,5.38,71592.5,-13.37,-14.43,-14.29,0,*59
1484190191.17,2321,5.31,71594.0,-13.35,-14.33,-14.23,0,*57
1484190192.4,2322,5.38,71596.0,-13.37,-14.29,-14.37,0,*58
1484190193.64,2323,5.38,71594.8,-13.37,-14.29,-14.29,0,*56
1484190194.87,2324,5.31,71596.0,-13.37,-14.29,-14.29,0,*51
1484190196.11,2325,5.38,71600.0,-13.37,-14.37,-14.29,0,*5F
1484190197.34,2326,5.31,71598.0,-13.37,-14.29,-14.23,0,*59
1484190198.58,2327,5.38,71598.8,-13.37,-14.29,-14.23,0,*58
1484190199.82,2328,5.31,71600.3,-13.37,-14.29,-14.23,0,*57
1484190201.03,2329,5.31,71600.8,-13.35,-14.29,-14.23,0,*54
1484190202.26,2330,5.38,71602.5,-13.37,-14.29,-14.29,0,*54
1484190203.5,2331,5.38,71606.3,-13.37,-14.37,-14.37,0,*55
1484190204.74,2332,5.38,71610.5,-13.37,-14.37,-14.29,0,*59
1484190205.97,2333,5.31,71606.0,-13.37,-14.37,-14.37,0,*57
1484190207.27,2334,5.31,71602.3,-13.37,-14.51,-14.55,0,*54
1484190208.56,2335,5.31,71600.3,-13.37,-14.51,-14.51,0,*51
1484190209.85,2336,5.38,71598.5,-13.37,-14.51,-14.55,0,*56
1484190211.14,2337,5.31,71596.5,-13.37,-14.43,-14.51,0,*50
1484190212.37,2338,5.38,71598.8,-13.37,-14.29,-14.29,0,*5C
1484190213.6,2339,5.31,71598.5,-13.37,-14.29,-14.29,0,*5D
1484190214.82,2340,5.38,71602.0,-13.35,-14.23,-14.33,0,*50
1484190216.06,2341,5.31,71602.5,-13.37,-14.29,-14.37,0,*5D
1484190217.27,2342,5.38,71610.3,-13.35,-14.37,-14.33,0,*57
1484190218.55,2343,5.31,71610.3,-13.37,-14.51,-14.43,0,*53
1484190219.84,2344,5.31,71598.0,-13.37,-14.55,-14.51,0,*53
1484190221.13,2345,5.38,71610.8,-13.37,-14.51,-14.43,0,*55
1484190222.41,2346,5.31,71606.8,-13.37,-14.43,-14.51,0,*56
1484190223.7,2347,5.31,71604.0,-13.37,-14.55,-14.51,0,*50
1484190224.98,2348,5.31,71594.0,-13.37,-14.55,-14.43,0,*5C
1484190226.25,2349,5.31,71592.8,-13.37,-14.55,-14.65,0,*59
1484190227.53,2350,5.38,71596.0,-13.41,-14.75,-14.75,0,*53
1484190228.79,2351,5.31,71586.3,-13.41,-14.75,-14.69,0,*5F
1484190230.02,2352,5.31,71582.3,-13.37,-14.65,-14.69,0,*5C
1484190231.28,2353,5.31,71584.8,-13.41,-14.89,-14.97,0,*5F
1484190232.56,2354,5.31,71586.8,-13.41,-15.01,-15.01,0,*57
1484190233.84,2355,5.38,71596.5,-13.37,-14.97,-14.97,0,*57
1484190235.13,2356,5.31,71592.5,-13.41,-14.97,-14.97,0,*55
1484190236.38,2357,5.31,71588.3,-13.37,-14.79,-14.69,0,*54
1484190237.61,2358,5.38,71590.5,-13.41,-14.69,-14.69,0,*5B
1484190238.91,2359,5.31,71586.3,-13.41,-14.47,-14.47,0,*5A
1484190240.2,2360,5.38,71590.3,-13.41,-14.43,-14.43,0,*50
1484190241.43,2361,5.38,71598.0,-13.41,-14.33,-14.33,0,*51
1484190242.67,2362,5.38,71602.0,-13.41,-14.33,-14.33,0,*52
1484190243.93,2363,5.38,71602.3,-13.41,-14.43,-14.33,0,*54
1484190245.23,2364,5.38,71598.8,-13.41,-14.43,-14.47,0,*50
1484190246.49,2365,5.38,71602.8,-13.43,-14.51,-14.51,0,*57
1484190247.8,2366,5.31,71604.8,-13.41,-14.47,-14.47,0,*56
1484190249.09,2367,5.38,71604.5,-13.41,-14.55,-14.55,0,*57
1484190250.31,2368,5.38,71596.5,-13.41,-14.69,-14.69,0,*58
1484190251.6,2369,5.38,71594.3,-13.41,-14.75,-14.75,0,*59
1484190252.83,2370,5.31,71586.3,-13.43,-14.79,-14.89,0,*5C
1484190254.12,2371,5.38,71588.5,-13.45,-14.79,-14.79,0,*54
1484190255.33,2372,5.38,71580.0,-13.43,-14.61,-14.61,0,*51
1484190256.56,2373,5.31,71586.8,-13.43,-14.61,-14.51,0,*53
1484190257.77,2374,5.38,71582.5,-13.43,-14.37,-14.37,0,*57
1484190259.04,2375,5.38,71588.8,-13.43,-14.47,-14.51,0,*51
1484190260.31,2376,5.38,71596.3,-13.43,-14.47,-14.47,0,*55
1484190261.55,2377,5.38,71600.8,-13.45,-14.37,-14.37,0,*52
1484190262.79,2378,5.38,71596.5,-13.43,-14.47,-14.61,0,*5F
1484190264.0,2379,5.31,71604.0,-13.43,-14.61,-14.61,0,*5A
1484190265.27,2380,5.38,71614.3,-13.43,-14.51,-14.51,0,*5C
1484190266.47,2381,5.38,71602.5,-13.43,-14.61,-14.61,0,*5D
1484190267.68,2382,5.38,71588.0,-13.43,-14.61,-14.61,0,*5E
1484190268.93,2383,5.38,71586.5,-13.43,-14.75,-14.75,0,*5F
1484190270.2,2384,5.31,71594.8,-13.45,-14.75,-14.65,0,*5F
1484190271.45,2385,5.31,71586.5,-13.43,-14.79,-14.75,0,*55
1484190272.71,2386,5.38,71584.3,-13.43,-14.75,-14.75,0,*5A
1484190273.97,2387,5.38,71586.8,-13.43,-14.51,-14.51,0,*5B
1484190275.21,2388,5.38,71586.8,-13.45,-14.37,-14.37,0,*52
1484190276.42,2389,5.38,71596.3,-13.43,-14.33,-14.33,0,*55
1484190277.65,2390,5.38,71594.3,-13.45,-14.37,-14.33,0,*5F
1484190278.86,2391,5.38,71602.5,-13.43,-14.37,-14.37,0,*5C
1484190280.1,2392,5.31,71590.3,-13.45,-14.61,-14.65,0,*5D
1484190281.34,2393,5.38,71590.5,-13.43,-14.51,-14.61,0,*5D
1484190282.61,2394,5.38,71588.3,-13.45,-14.37,-14.47,0,*58
1484190283.85,2395,5.38,71588.0,-13.45,-14.37,-14.37,0,*5E
1484190285.11,2396,5.38,71594.0,-13.45,-14.37,-14.47,0,*5A
1484190286.39,2397,5.38,71594.8,-13.43,-14.47,-14.47,0,*5A
1484190287.62,2398,5.38,71590.3,-13.45,-14.37,-14.37,0,*53
1484190288.86,2399,5.38,71586.8,-13.41,-14.33,-14.33,0,*56
1484190290.07,2400,5.38,71596.3,-13.43,-14.37,-14.37,0,*53
1484190291.34,2401,5.38,71594.8,-13.45,-14.47,-14.37,0,*53
1484190292.55,2402,5.38,71592.5,-13.43,-14.33,-14.33,0,*51
1484190293.76,2403,5.38,71594.3,-13.43,-14.33,-14.33,0,*50
1484190294.96,2404,5.38,71596.8,-13.43,-14.33,-14.33,0,*57
1484190296.17,2405,5.38,71594.8,-13.43,-14.29,-14.33,0,*5D
1484190297.38,2406,5.38,71598.8,-13.43,-14.33,-14.33,0,*55
1484190298.62,2407,5.38,71600.8,-13.45,-14.37,-14.33,0,*56
1484190299.89,2408,5.38,71598.5,-13.43,-14.47,-14.47,0,*5B
1484190301.16,2409,5.31,71598.0,-13.43,-14.47,-14.51,0,*5D
1484190302.37,2410,5.38,71598.0,-13.43,-14.37,-14.37,0,*52
1484190303.58,2411,5.38,71588.5,-13.43,-14.37,-14.37,0,*53
1484190304.79,2412,5.38,71596.0,-13.43,-14.37,-14.33,0,*54
1484190306.09,2413,5.38,71584.0,-13.41,-14.43,-14.47,0,*57
1484190307.37,2414,5.38,71584.8,-13.41,-14.75,-14.83,0,*5D
1484190308.63,2415,5.38,71578.8,-13.43,-14.75,-14.75,0,*57
1484190309.84,2416,5.38,71574.0,-13.43,-14.61,-14.61,0,*54
1484190311.08,2417,5.38,71582.8,-13.43,-14.37,-14.47,0,*52
1484190312.32,2418,5.38,71582.0,-13.43,-14.37,-14.47,0,*5D
1484190313.56,2419,5.31,71574.5,-13.43,-14.37,-14.47,0,*5C
1484190314.8,2420,5.38,71576.0,-13.43,-14.37,-14.47,0,*56
1484190316.01,2421,5.38,71588.5,-13.43,-14.37,-14.37,0,*50
1484190317.25,2422,5.38,71584.5,-13.43,-14.47,-14.37,0,*54
1484190318.52,2423,5.38,71588.0,-13.43,-14.47,-14.47,0,*52
1484190319.76,2424,5.38,71598.3,-13.43,-14.37,-14.47,0,*52
1484190321.01,2425,5.38,71594.8,-13.43,-14.37,-14.47,0,*53
1484190322.28,2426,5.38,71592.8,-13.43,-14.47,-14.47,0,*57
1484190323.49,2427,5.38,71598.5,-13.43,-14.37,-14.37,0,*56
1484190324.75,2428,5.38,71594.0,-13.45,-14.61,-14.51,0,*5C
1484190325.99,2429,5.38,71590.3,-13.43,-14.47,-14.37,0,*5F
1484190327.23,2430,5.38,71590.0,-13.45,-14.37,-14.37,0,*56
1484190328.44,2431,5.38,71588.8,-13.43,-14.37,-14.33,0,*55
1484190329.65,2432,5.38,71588.8,-13.43,-14.29,-14.33,0,*59
1484190330.85,2433,5.38,71588.5,-13.43,-14.33,-14.33,0,*53
1484190332.09,2434,5.38,71586.3,-13.43,-14.37,-14.47,0,*53
1484190333.37,2435,5.31,71582.3,-13.43,-14.47,-14.47,0,*55
1484190334.63,2436,5.38,71588.0,-13.43,-14.51,-14.51,0,*56
1484190335.9,2437,5.38,71590.0,-13.43,-14.47,-14.47,0,*57
1484190337.14,2438,5.38,71588.5,-13.43,-14.51,-14.61,0,*5B
1484190338.41,2439,5.38,71592.8,-13.43,-14.51,-14.47,0,*5E
1484190339.65,2440,5.31,71586.8,-13.43,-14.61,-14.47,0,*53
1484190340.91,2441,5.38,71588.3,-13.45,-14.61,-14.51,0,*53
1484190342.18,2442,5.31,71584.3,-13.43,-14.47,-14.51,0,*52
1484190343.39,2443,5.38,71592.0,-13.43,-14.61,-14.65,0,*50
1484190344.65,2444,5.38,71590.8,-13.43,-14.51,-14.51,0,*53
1484190345.86,2445,5.38,71584.8,-13.43,-14.61,-14.61,0,*52
1484190347.16,2446,5.38,71574.5,-13.45,-14.47,-14.51,0,*50
1484190348.37,2447,5.31,71572.8,-13.43,-14.37,-14.37,0,*50
1484190349.58,2448,5.38,71572.5,-13.43,-14.37,-14.37,0,*5F
1484190350.79,2449,5.38,71580.5,-13.43,-14.33,-14.37,0,*5A
1484190351.99,2450,5.38,71574.3,-13.43,-14.33,-14.37,0,*52
1484190353.2,2451,5.38,71580.0,-13.43,-14.37,-14.37,0,*57
1484190354.42,2452,5.38,71584.8,-13.43,-14.37,-14.33,0,*50
1484190355.66,2453,5.38,71578.5,-13.43,-14.47,-14.37,0,*52
1484190356.9,2454,5.38,71584.8,-13.45,-14.37,-14.37,0,*54
1484190358.16,2455,5.38,71588.0,-13.43,-14.47,-14.51,0,*54
1484190359.4,2456,5.31,71586.5,-13.43,-14.51,-14.61,0,*53
1484190360.68,2457,5.38,71582.0,-13.43,-14.47,-14.47,0,*51
1484190361.88,2458,5.38,71574.5,-13.43,-14.65,-14.65,0,*5E
1484190363.09,2459,5.38,71578.3,-13.43,-14.65,-14.61,0,*5B
1484190364.33,2460,5.38,71578.5,-13.43,-14.51,-14.61,0,*56
1484190365.54,2461,5.38,71570.3,-13.43,-14.61,-14.61,0,*54
1484190366.74,2462,5.31,71564.8,-13.43,-14.65,-14.65,0,*57
1484190368.0,2463,5.31,71566.5,-13.43,-14.75,-14.75,0,*56
1484190369.23,2464,5.38,71578.5,-13.45,-14.65,-14.65,0,*57
1484190370.49,2465,5.38,71576.5,-13.45,-14.61,-14.51,0,*55
1484190371.76,2466,5.38,71572.5,-13.43,-14.51,-14.47,0,*54
1484190373.0,2467,5.31,71574.0,-13.45,-14.37,-14.33,0,*50
1484190374.21,2468,5.38,71584.8,-13.43,-14.29,-14.29,0,*5D
1484190375.42,2469,5.31,71576.3,-13.43,-14.19,-14.33,0,*54
1484190376.66,2470,5.31,71562.0,-13.41,-14.29,-14.29,0,*56
1484190377.9,2471,5.38,71574.5,-13.41,-14.33,-14.33,0,*57
1484190379.11,2472,5.38,71568.0,-13.43,-14.37,-14.37,0,*56
1484190380.35,2473,5.38,71552.5,-13.43,-14.37,-14.47,0,*50
1484190381.59,2474,5.38,71562.0,-13.43,-14.47,-14.37,0,*57
1484190382.8,2475,5.38,71570.0,-13.43,-14.37,-14.37,0,*51
1484190384.01,2476,5.31,71578.5,-13.43,-14.33,-14.33,0,*52
1484190385.25,2477,5.38,71574.0,-13.43,-14.47,-14.37,0,*54
1484190386.49,2478,5.38,71580.3,-13.43,-14.47,-14.37,0,*5B
1484190387.71,2479,5.38,71586.8,-13.43,-14.37,-14.37,0,*5D
1484190388.92,2480,5.38,71582.3,-13.43,-14.37,-14.37,0,*5B
1484190390.16,2481,5.38,71582.5,-13.43,-14.47,-14.37,0,*5D
1484190391.37,2482,5.38,71584.3,-13.43,-14.37,-14.37,0,*59
1484190392.58,2483,5.38,71584.8,-13.43,-14.37,-14.37,0,*58
1484190393.85,2484,5.38,71582.8,-13.43,-14.47,-14.47,0,*5F
1484190395.12,2485,5.38,71582.8,-13.41,-14.43,-14.33,0,*5B
1484190396.35,2486,5.38,71590.8,-13.41,-14.33,-14.33,0,*5F
1484190397.59,2487,5.38,71590.8,-13.41,-14.33,-14.33,0,*5E
1484190398.83,2488,5.38,71590.8,-13.41,-14.33,-14.23,0,*50
1484190400.07,2489,5.31,71590.3,-13.37,-14.23,-14.23,0,*51
1484190401.31,2490,5.38,71592.8,-13.41,-14.29,-14.29,0,*58
1484190402.55,2491,5.38,71590.5,-13.41,-14.29,-14.29,0,*59
1484190403.79,2492,5.38,71592.8,-13.41,-14.29,-14.23,0,*50
1484190405.04,2493,5.38,71594.8,-13.41,-14.23,-14.15,0,*5E
1484190406.28,2494,5.38,71592.0,-13.37,-14.23,-14.23,0,*5D
1484190407.52,2495,5.38,71592.8,-13.41,-14.29,-14.29,0,*5D
1484190408.76,2496,5.38,71596.0,-13.41,-14.23,-14.29,0,*54
1484190410.0,2497,5.38,71594.8,-13.41,-14.23,-14.29,0,*55
1484190411.25,2498,5.38,71592.5,-13.37,-14.19,-14.23,0,*58
1484190412.49,2499,5.38,71596.3,-13.37,-14.23,-14.23,0,*50
1484190413.73,2500,5.38,71590.0,-13.41,-14.29,-14.23,0,*5A
1484190414.97,2501,5.38,71588.3,-13.37,-14.19,-14.23,0,*59
1484190416.21,2502,5.38,71590.8,-13.41,-14.29,-14.29,0,*52
1484190417.45,2503,5.38,71588.8,-13.37,-14.19,-14.23,0,*5B
1484190418.69,2504,5.38,71592.8,-13.37,-14.23,-14.23,0,*55
1484190419.93,2505,5.38,71596.8,-13.41,-14.29,-14.29,0,*55
1484190421.17,2506,5.38,71588.8,-13.37,-14.23,-14.23,0,*57
1484190422.41,2507,5.31,71590.0,-13.41,-14.29,-14.33,0,*5C
1484190423.65,2508,5.38,71582.5,-13.37,-14.37,-14.29,0,*56
1484190424.89,2509,5.38,71598.5,-13.37,-14.37,-14.37,0,*58
1484190426.17,2510,5.31,71582.8,-13.37,-14.55,-14.55,0,*50
1484190427.4,2511,5.38,71582.5,-13.37,-14.65,-14.69,0,*5D
1484190428.64,2512,5.38,71576.3,-13.37,-14.65,-14.65,0,*52
1484190429.87,2513,5.38,71568.0,-13.41,-14.61,-14.61,0,*52
1484190431.15,2514,5.38,71568.3,-13.41,-14.47,-14.61,0,*51
1484190432.43,2515,5.38,71576.5,-13.37,-14.43,-14.43,0,*55
1484190433.73,2516,5.38,71580.3,-13.41,-14.47,-14.47,0,*57
1484190434.99,2517,5.38,71590.0,-13.37,-14.43,-14.37,0,*54
1484190436.27,2518,5.31,71586.3,-13.41,-14.43,-14.43,0,*59
1484190437.54,2519,5.38,71594.0,-13.41,-14.61,-14.47,0,*5C
1484190438.84,2520,5.38,71578.8,-13.41,-14.47,-14.47,0,*52
1484190440.13,2521,5.38,71586.5,-13.41,-14.55,-14.55,0,*53
1484190441.37,2522,5.38,71586.5,-13.37,-14.37,-14.29,0,*5E
1484190442.61,2523,5.38,71600.5,-13.41,-14.29,-14.23,0,*5B
1484190443.85,2524,5.38,71602.5,-13.41,-14.29,-14.23,0,*5C
1484190445.1,2525,5.38,71600.3,-13.41,-14.15,-14.23,0,*52
1484190446.34,2526,5.38,71606.5,-13.41,-14.23,-14.29,0,*5E
1484190447.58,2527,5.38,71608.0,-13.37,-14.19,-14.23,0,*5D
1484190448.85,2528,5.38,71608.3,-13.41,-14.01,-14.11,0,*5B
1484190450.11,2529,5.38,71598.0,-13.37,-13.93,-13.97,0,*5E
1484190451.4,2530,5.38,71596.0,-13.37,-14.05,-14.05,0,*52
1484190452.69,2531,5.38,71600.0,-13.37,-14.05,-14.05,0,*53
1484190453.94,2532,5.38,71596.5,-13.37,-14.15,-14.15,0,*50
1484190455.19,2533,5.38,71598.5,-13.41,-14.15,-14.15,0,*50
1484190456.43,2534,5.31,71596.5,-13.37,-14.23,-14.23,0,*56
1484190457.67,2535,5.38,71596.8,-13.37,-14.19,-14.23,0,*5E
1484190458.91,2536,5.38,71596.8,-13.37,-14.29,-14.29,0,*54
1484190460.19,2537,5.38,71594.5,-13.37,-14.43,-14.43,0,*55
1484190461.45,2538,5.38,71596.0,-13.37,-14.37,-14.51,0,*5A
1484190462.7,2539,5.38,71596.0,-13.37,-14.29,-14.43,0,*57
1484190463.99,2540,5.38,71594.8,-13.37,-14.51,-14.43,0,*56
1484190465.28,2541,5.38,71582.3,-13.37,-14.51,-14.51,0,*54
1484190466.57,2542,5.38,71584.3,-13.37,-14.43,-14.51,0,*54
1484190467.81,2543,5.38,71586.0,-13.41,-14.33,-14.33,0,*57
1484190469.05,2544,5.38,71588.8,-13.37,-14.23,-14.29,0,*5B
1484190470.28,2545,5.38,71588.8,-13.41,-14.29,-14.29,0,*51
1484190471.53,2546,5.38,71590.8,-13.41,-14.23,-14.23,0,*52
1484190472.77,2547,5.38,71592.0,-13.37,-14.19,-14.23,0,*5B
1484190474.01,2548,5.38,71594.8,-13.37,-14.23,-14.23,0,*5D
1484190475.26,2549,5.38,71592.8,-13.37,-14.23,-14.23,0,*5C
1484190476.52,2550,5.38,71592.0,-13.37,-14.43,-14.37,0,*57
1484190477.75,2551,5.38,71596.3,-13.37,-14.29,-14.29,0,*55
1484190478.99,2552,5.38,71598.8,-13.37,-14.23,-14.23,0,*56
1484190480.24,2553,5.38,71600.8,-13.37,-14.19,-14.23,0,*5E
1484190481.48,2554,5.38,71592.3,-13.37,-14.23,-14.23,0,*50
1484190482.74,2555,5.38,71598.0,-13.37,-14.43,-14.37,0,*52
1484190483.98,2556,5.38,71600.3,-13.37,-14.37,-14.37,0,*52
1484190485.26,2557,5.38,71596.8,-13.37,-14.43,-14.51,0,*50
1484190486.5,2558,5.31,71598.5,-13.37,-14.37,-14.29,0,*53
1484190487.73,2559,5.38,71596.5,-13.37,-14.29,-14.29,0,*5D
1484190488.97,2560,5.38,71596.5,-13.37,-14.37,-14.29,0,*58
1484190490.21,2561,5.38,71596.3,-13.37,-14.29,-14.29,0,*56
1484190491.44,2562,5.38,71598.0,-13.37,-14.29,-14.29,0,*55
1484190492.68,2563,5.38,71600.5,-13.37,-14.23,-14.29,0,*5E
1484190493.92,2564,5.38,71590.8,-13.37,-14.23,-14.23,0,*53
1484190495.21,2565,5.31,71588.3,-13.37,-14.51,-14.43,0,*51
1484190496.5,2566,5.31,71594.5,-13.37,-14.51,-14.55,0,*55
1484190497.8,2567,5.38,71590.8,-13.41,-14.47,-14.47,0,*51
1484190499.08,2568,5.38,71576.5,-13.41,-14.43,-14.43,0,*5E
1484190500.32,2569,5.38,71576.5,-13.37,-14.37,-14.37,0,*5E
1484190501.56,2570,5.38,71578.3,-13.37,-14.37,-14.29,0,*59
1484190502.79,2571,5.38,71572.8,-13.37,-14.29,-14.29,0,*57
1484190504.04,2572,5.38,71566.0,-13.41,-14.23,-14.23,0,*55
1484190505.28,2573,5.38,71574.3,-13.41,-14.29,-14.29,0,*54
1484190506.52,2574,5.38,71570.0,-13.37,-14.23,-14.23,0,*52
1484190507.76,2575,5.38,71570.0,-13.37,-14.19,-14.19,0,*53